[[{"header":{"parameterUnit":"m.s-1","parameterCategory":2,"la1":30.2991,"la2":30.254,"lo1":-89.0895,"lo2":-89.0444,"dy":0.0017,"dx":0.0017,"nx":28,"ny":28,"refTime":"2024-07-30T09:00:00:Z","depth":"0","parameterNumber":2,"parameterNumberName":"U-component_of_CURRENTS"},"data":[0,0,0,0,0,0,0,0,0,0,0,0,0,0,0,0,0,0,0,0,0,0,0,0,0,0,0,0,0,0,0,0,0,0,0,0,0,0,0,0,0,0,0,0,0,0,0,0,0,0,0,0,0,0,0,0,0,0,-0.1736,-0.1737,0,-0.1772,-0.1772,-0.1772,-0.17,-0.1698,-0.1696,-0.1694,-0.1632,-0.1632,-0.1632,0,0,0,0,0,0,0,0,0,0,0,0,0,-0.167,-0.1671,-0.1736,-0.1737,-0.1738,-0.1772,-0.1772,-0.1772,-0.17,-0.1698,-0.1696,-0.1693,-0.1632,-0.1632,-0.1632,0,0,0,0,0,0,0,0,0,0,0,0,0,-0.1697,-0.1671,-0.1736,-0.171,-0.1708,-0.1772,-0.1772,-0.1772,-0.1701,-0.1698,-0.1695,-0.1692,-0.1632,-0.1632,-0.1633,-0.1692,0,0,-0.1633,-0.1633,0,0,0,0,0,0,0,0,-0.1695,-0.1699,-0.1713,-0.1711,-0.171,-0.1733,-0.1726,-0.1742,-0.1702,-0.1699,-0.1694,-0.1691,-0.1662,-0.166,-0.1667,-0.1689,-0.1686,-0.1633,-0.1633,-0.1633,-0.1634,0,0,0,0,0,0,0,-0.1693,-0.1697,-0.1745,-0.1714,-0.1712,-0.1719,-0.1718,-0.1729,-0.1691,-0.1699,-0.1695,-0.1707,-0.1659,-0.1668,-0.1665,-0.1686,-0.1633,-0.1633,-0.1634,-0.1634,-0.1741,-0.1744,0,0,0,0,0,0,-0.1699,-0.1696,-0.1744,-0.1747,-0.1701,-0.1722,-0.1721,-0.1724,-0.1693,-0.1687,-0.171,-0.1704,-0.1669,-0.1665,-0.1663,-0.17,-0.1633,-0.1634,-0.1634,-0.1738,-0.1742,-0.1745,0,0,0,0,0,0,-0.1697,-0.1702,-0.1743,-0.1726,-0.1732,-0.1726,-0.173,-0.1727,-0.172,-0.1703,-0.1693,-0.1705,-0.1666,-0.1662,-0.1677,-0.1698,-0.1634,-0.1634,-0.1735,-0.1739,-0.1743,-0.1795,0,0,0,0,0,0,-0.1695,-0.1701,-0.1698,-0.1726,-0.1733,-0.1774,-0.1734,-0.173,-0.1735,-0.1727,-0.1697,-0.1689,-0.1664,-0.1677,-0.1677,-0.1697,-0.1634,-0.1732,-0.1737,-0.1742,-0.1789,-0.18,-0.1809,0,0,0,0,0,-0.1692,-0.1699,-0.1697,-0.1703,-0.1731,-0.1775,-0.1779,-0.1762,-0.1738,-0.1743,-0.1731,-0.1689,-0.1709,-0.1679,-0.1679,-0.1699,-0.1729,-0.1736,-0.1742,-0.1785,-0.1798,-0.1809,0,0,0,0,0,0,-0.1665,-0.1695,-0.1692,-0.1705,-0.1737,-0.1764,-0.1766,-0.1769,-0.1767,-0.1753,-0.1723,-0.1717,-0.1734,-0.1727,-0.1695,-0.1751,-0.1714,-0.172,-0.1747,-0.1759,-0.1768,-0.1726,-0.1634,0,0,0,0,0,-0.1664,-0.1674,-0.1711,-0.1723,-0.1734,-0.1753,-0.1766,-0.177,-0.1781,-0.1775,-0.1759,-0.1756,-0.1768,-0.1768,-0.1771,-0.1809,-0.1765,-0.1826,-0.1836,-0.1843,-0.1813,-0.1791,-0.1794,-0.1765,-0.1765,-0.1765,0,0,-0.1657,-0.1678,-0.168,-0.1719,-0.1732,-0.1765,-0.175,-0.178,-0.1805,-0.1772,-0.1783,-0.1783,-0.1786,-0.1817,-0.1826,-0.1807,-0.1836,-0.1851,-0.1857,-0.1822,-0.1797,-0.1799,-0.1801,-0.1769,-0.1768,-0.1768,0,0,-0.1665,-0.1666,-0.168,-0.171,-0.175,-0.1772,-0.1783,-0.1816,-0.1817,-0.1859,-0.1836,-0.1842,-0.1873,-0.1865,-0.1871,-0.1943,-0.1884,-0.1966,-0.1978,-0.1958,-0.1959,-0.1958,-0.1918,-0.1914,-0.1974,-0.1974,-0.1974,0,-0.1655,-0.1672,-0.1694,-0.1725,-0.1743,-0.1775,-0.1802,-0.1832,-0.1868,-0.1875,-0.1865,-0.1899,-0.1888,-0.1918,-0.1937,-0.1956,-0.1934,-0.1927,-0.1965,-0.1964,-0.1962,-0.1921,-0.1915,-0.1977,-0.1977,-0.1976,-0.1976,0,-0.1678,-0.1692,-0.1704,-0.1746,-0.1779,-0.1807,-0.1858,-0.1887,-0.1901,-0.1924,-0.1952,-0.1954,-0.1957,-0.1983,-0.1976,-0.1985,-0.1968,-0.1973,-0.1921,-0.1967,-0.1923,-0.1916,-0.1982,-0.1981,-0.198,-0.1979,0,0,-0.1645,-0.1705,-0.1704,-0.1714,-0.1785,-0.181,-0.1871,-0.1919,-0.1938,-0.1979,-0.1989,-0.2021,-0.2004,-0.2008,-0.2011,-0.2001,-0.1975,-0.1985,-0.1982,-0.1917,-0.1919,-0.1753,-0.1729,-0.1992,-0.1991,-0.199,-0.1894,0,-0.1644,-0.1676,-0.1726,-0.176,-0.1766,-0.1831,-0.1882,-0.1938,-0.1974,-0.1997,-0.2015,-0.2028,-0.2025,-0.2024,-0.2014,-0.1992,-0.1958,-0.1999,-0.1905,-0.1901,-0.1725,-0.1715,-0.1573,-0.1461,-0.1886,-0.1885,-0.1884,0,-0.1631,-0.1651,-0.167,-0.1732,-0.1744,-0.1783,-0.184,-0.1896,-0.1961,-0.1991,-0.2014,-0.2028,-0.2027,-0.2012,-0.1968,-0.2,-0.1941,-0.192,-0.1916,-0.1723,-0.172,-0.1484,-0.1431,-0.1514,-0.1873,-0.1874,-0.1875,0,-0.1541,-0.1606,-0.1606,-0.1626,-0.1714,-0.1736,-0.1785,-0.1867,-0.1904,-0.1964,-0.1977,-0.201,-0.1981,-0.1966,-0.1903,-0.1943,-0.1827,-0.188,-0.1669,-0.1658,-0.1491,-0.1465,-0.147,-0.1801,-0.1801,-0.1801,-0.1801,0,-0.1493,-0.1495,-0.1554,-0.155,-0.1562,-0.1654,-0.1685,-0.1751,-0.1831,-0.1823,-0.1933,-0.1881,-0.1962,-0.1912,-0.1888,-0.1726,-0.1803,-0.1632,-0.1608,-0.1508,-0.1486,-0.1511,-0.1566,-0.1798,-0.1798,-0.1799,-0.18,0,-0.1383,-0.1431,-0.1425,-0.149,-0.151,-0.1506,-0.1608,-0.1623,-0.1728,-0.1713,-0.1726,-0.1776,-0.165,-0.1697,-0.1632,-0.1645,-0.1524,-0.1472,-0.1333,-0.1291,-0.118,-0.1241,-0.1153,-0.112,-0.1249,-0.1244,-0.124,0,-0.1326,-0.1301,-0.1336,-0.1318,-0.1339,-0.1369,-0.1384,-0.1529,-0.1538,-0.158,-0.1526,-0.1457,-0.129,-0.1182,-0.116,-0.1085,-0.1204,-0.1007,-0.104,-0.1109,-0.1164,-0.126,-0.1249,-0.0865,-0.0858,-0.0852,-0.0847,0,-0.1187,-0.1192,-0.1184,-0.1147,-0.1141,-0.1169,-0.1193,-0.1207,-0.132,-0.1299,-0.1166,-0.1042,-0.0855,-0.065,-0.0612,-0.0621,-0.1005,-0.0882,-0.1005,-0.087,-0.0923,-0.09,-0.1007,-0.0797,-0.0802,-0.0806,-0.0809,-0.0811,-0.1061,-0.101,-0.0983,-0.0956,-0.0952,-0.0939,-0.0924,-0.0942,-0.0919,-0.0851,-0.0787,-0.0533,-0.0358,-0.019,-0.0267,-0.0391,-0.0467,-0.0481,-0.0552,-0.0648,-0.0593,-0.0553,-0.0286,-0.0288,-0.0289,-0.0291,-0.0292,0,-0.0889,-0.085,-0.0794,-0.0763,-0.0717,-0.0777,-0.077,-0.0734,-0.0629,-0.0501,-0.0346,-0.0,0.0151,0.0121,0.0016,-0.0126,-0.0258,-0.0246,-0.0411,-0.0417,-0.041,-0.0371,-0.0047,-0.0047,-0.0047,-0.0047,-0.0047,-0.0047,-0.0785,-0.0685,-0.0667,-0.0545,-0.0529,-0.0452,-0.0431,-0.0361,-0.0272,-0.0002,0.0223,0.0381,0.0386,0.0109,-0.0147,-0.0203,-0.0347,-0.0262,-0.0402,-0.0486,-0.0519,-0.055,-0.0532,-0.0247,-0.0247,-0.0374,-0.0375,-0.0376]},{"header":{"parameterUnit":"m.s-1","parameterCategory":2,"la1":30.2991,"la2":30.254,"lo1":-89.0895,"lo2":-89.0444,"dy":0.0017,"dx":0.0017,"nx":28,"ny":28,"refTime":"2024-07-30T09:00:00:Z","depth":"0","parameterNumber":3,"parameterNumberName":"V-component_of_CURRENTS"},"data":[0,0,0,0,0,0,0,0,0,0,0,0,0,0,0,0,0,0,0,0,0,0,0,0,0,0,0,0,0,0,0,0,0,0,0,0,0,0,0,0,0,0,0,0,0,0,0,0,0,0,0,0,0,0,0,0,0,0,-0.0034,-0.0034,0,-0.0011,-0.0011,-0.0011,0.0052,0.0053,0.0054,0.0055,0.0082,0.0082,0.0081,0,0,0,0,0,0,0,0,0,0,0,0,0,0.0038,0.0036,-0.0034,-0.0034,-0.0033,-0.0011,-0.0011,-0.001,0.0051,0.0053,0.0054,0.0056,0.0082,0.0082,0.0081,0,0,0,0,0,0,0,0,0,0,0,0,0,0.0029,0.0035,-0.0034,-0.0001,0.0002,-0.0011,-0.0011,-0.001,0.0051,0.0053,0.0055,0.0056,0.0083,0.0082,0.0081,0.0041,0,0,0.008,0.0079,0,0,0,0,0,0,0,0,0.003,0.0027,-0.0006,-0.0003,0.0,0.0018,0.0024,0.0007,0.0051,0.0034,0.0055,0.0057,0.0059,0.006,0.0063,0.0043,0.0044,0.0079,0.0079,0.0079,0.0079,0,0,0,0,0,0,0,0.003,0.0027,-0.0023,-0.0006,-0.0002,0.0033,0.0034,0.0022,0.0037,0.0036,0.004,0.0039,0.0061,0.0063,0.0064,0.0044,0.0079,0.0079,0.0079,0.0078,0.0076,0.0076,0,0,0,0,0,0,0.0019,0.0026,-0.0024,-0.0023,0.0018,0.003,0.0031,0.0012,0.0037,0.0043,0.0038,0.0042,0.0063,0.0064,0.0065,0.0081,0.0079,0.0078,0.0078,0.0075,0.0076,0.0076,0,0,0,0,0,0,0.002,0.0013,-0.0025,0.0003,0.0,0.0026,0.0005,0.0011,0.0015,0.0039,0.0045,0.0036,0.0065,0.0066,0.0063,0.008,0.0078,0.0077,0.0075,0.0075,0.0076,0.0073,0,0,0,0,0,0,0.0021,0.0013,-0.001,0.0001,-0.0002,-0.0045,0.0003,0.001,0.0011,0.0017,0.0038,0.0043,0.0066,0.0063,0.0062,0.0079,0.0077,0.0075,0.0075,0.0076,0.0072,0.0073,0.0073,0,0,0,0,0,0.0023,-0.0026,-0.0011,-0.0017,-0.0033,-0.0047,-0.0046,-0.0018,0.0009,-0.0004,0.0026,0.0043,0.0067,0.0062,0.0061,0.0078,0.0074,0.0075,0.0076,0.0072,0.0073,0.0073,0,0,0,0,0,0,-0.0005,-0.0024,-0.0008,-0.0059,-0.0054,-0.0037,-0.0055,-0.0029,-0.0017,-0.0009,0.0028,0.0033,0.0037,0.005,0.0044,0.0081,0.008,0.008,0.0078,0.0079,0.0079,0.0095,0.0076,0,0,0,0,0,-0.0024,-0.0064,-0.0059,-0.0097,-0.0103,-0.0077,-0.008,-0.006,-0.0047,-0.0039,-0.0018,0.001,0.0036,0.0051,0.0055,0.0063,0.0081,0.0079,0.008,0.008,0.0093,0.0134,0.014,0.0078,0.0078,0.0078,0,0,-0.0043,-0.0059,-0.0079,-0.0105,-0.0101,-0.0125,-0.0075,-0.0091,-0.0085,-0.0042,-0.0038,-0.0009,0.0031,0.005,0.0057,0.0068,0.0103,0.0081,0.0081,0.0094,0.0135,0.0142,0.0147,0.0079,0.0079,0.0078,0,0,-0.0106,-0.0119,-0.017,-0.0178,-0.0185,-0.0169,-0.0176,-0.0164,-0.0132,-0.0135,-0.0078,-0.0026,-0.003,0.0044,0.0074,0.0077,0.0089,0.0069,0.0102,0.0141,0.0147,0.0152,0.0164,0.0171,0.0089,0.0089,0.0089,0,-0.0124,-0.0186,-0.0184,-0.023,-0.0235,-0.0193,-0.0229,-0.0202,-0.0182,-0.0133,-0.0143,-0.0049,-0.002,0.0075,0.0089,0.0082,0.0086,0.0096,0.0143,0.0148,0.0154,0.0165,0.0173,0.0088,0.0088,0.0088,0.0088,0,-0.0223,-0.0261,-0.0294,-0.0332,-0.0339,-0.0366,-0.0329,-0.0306,-0.0266,-0.0208,-0.0128,-0.0072,0.0003,0.0027,0.0057,0.0137,0.0118,0.0123,0.0142,0.016,0.017,0.0178,0.0088,0.0088,0.0088,0.0088,0,0,-0.028,-0.0348,-0.0357,-0.0372,-0.039,-0.0399,-0.0382,-0.0325,-0.0276,-0.0222,-0.0157,-0.0054,0.0014,0.0055,0.0119,0.0178,0.022,0.0168,0.017,0.018,0.0278,0.0337,0.0351,0.0222,0.0223,0.0225,0.0262,0,-0.0345,-0.0442,-0.0453,-0.0506,-0.0542,-0.0489,-0.0467,-0.0398,-0.033,-0.0264,-0.0123,-0.0064,0.0016,0.0049,0.013,0.0183,0.0242,0.0208,0.0258,0.026,0.0312,0.0364,0.0448,0.0495,0.0269,0.027,0.0271,0,-0.0434,-0.048,-0.0559,-0.0561,-0.0568,-0.0586,-0.0513,-0.0484,-0.0352,-0.0295,-0.017,-0.0094,0.0041,0.006,0.0221,0.0185,0.0237,0.0282,0.0284,0.0352,0.0336,0.0444,0.0517,0.0592,0.0283,0.0282,0.0281,0,-0.0471,-0.054,-0.0596,-0.0611,-0.062,-0.0608,-0.0588,-0.0482,-0.0427,-0.0316,-0.0278,-0.011,-0.0041,0.0059,0.0211,0.0186,0.035,0.032,0.0433,0.0435,0.0528,0.0538,0.069,0.042,0.042,0.042,0.042,0,-0.0536,-0.0571,-0.0619,-0.0651,-0.0669,-0.0653,-0.0628,-0.0567,-0.0483,-0.04,-0.0291,-0.0199,-0.0042,0.009,0.0189,0.0366,0.0347,0.0457,0.0467,0.0527,0.0535,0.0622,0.0644,0.0422,0.0421,0.0421,0.0421,0,-0.0562,-0.0608,-0.0661,-0.069,-0.0698,-0.0704,-0.0682,-0.0642,-0.0565,-0.0476,-0.0449,-0.0268,-0.0072,0.0103,0.0274,0.0354,0.0572,0.0554,0.061,0.0628,0.0766,0.0783,0.0945,0.1046,0.064,0.0642,0.0644,0,-0.0582,-0.0623,-0.0691,-0.0714,-0.0733,-0.0744,-0.0736,-0.0687,-0.0635,-0.0483,-0.0432,-0.0237,-0.0042,0.0239,0.0445,0.0639,0.0712,0.0769,0.0759,0.0817,0.0843,0.084,0.0913,0.086,0.0864,0.0866,0.0869,0,-0.0587,-0.062,-0.0659,-0.072,-0.0749,-0.0768,-0.0752,-0.073,-0.0629,-0.0547,-0.0368,-0.0222,0.0104,0.0415,0.0673,0.0776,0.0862,0.0827,0.0892,0.1051,0.1057,0.1143,0.0758,0.0893,0.089,0.0888,0.0887,0.0886,-0.0559,-0.0591,-0.0646,-0.0694,-0.0729,-0.0737,-0.0723,-0.0672,-0.0588,-0.0384,-0.03,-0.0034,0.0351,0.0762,0.0861,0.1121,0.1081,0.1166,0.1183,0.1173,0.1294,0.0957,0.1102,0.1101,0.11,0.1099,0.1099,0,-0.0504,-0.0551,-0.0602,-0.0657,-0.0674,-0.071,-0.068,-0.0613,-0.0481,-0.0293,-0.0106,0.033,0.0716,0.102,0.1401,0.147,0.1476,0.1506,0.1526,0.1586,0.1298,0.1332,0.1533,0.1533,0.1533,0.1533,0.1533,0.1533,-0.0471,-0.0507,-0.0551,-0.0575,-0.0608,-0.0593,-0.0565,-0.0448,-0.0303,0.0038,0.0306,0.0518,0.0963,0.1409,0.1722,0.1749,0.1842,0.1832,0.1872,0.1656,0.1624,0.1594,0.1634,0.1895,0.1895,0.2189,0.2192,0.2194]}],[{"header":{"parameterUnit":"m.s-1","parameterCategory":2,"la1":30.2991,"la2":30.254,"lo1":-89.0895,"lo2":-89.0444,"dy":0.0017,"dx":0.0017,"nx":28,"ny":28,"refTime":"2024-07-30T09:00:00:Z","depth":"2","parameterNumber":2,"parameterNumberName":"U-component_of_CURRENTS"},"data":[0,0,0,0,0,0,0,0,0,0,0,0,0,0,0,0,0,0,0,0,0,0,0,0,0,0,0,0,0,0,0,0,0,0,0,0,0,0,0,0,0,0,0,0,0,0,0,0,0,0,0,0,0,0,0,0,0,0,-0.2171,-0.2172,0,-0.2346,-0.2348,-0.235,-0.245,-0.245,-0.2451,-0.2451,-0.2728,-0.2735,-0.2742,0,0,0,0,0,0,0,0,0,0,0,0,0,-0.1958,-0.1961,-0.217,-0.2173,-0.2175,-0.2345,-0.2348,-0.235,-0.245,-0.245,-0.2451,-0.2451,-0.2726,-0.2734,-0.2743,0,0,0,0,0,0,0,0,0,0,0,0,0,-0.2084,-0.1962,-0.217,-0.2245,-0.2253,-0.2345,-0.2348,-0.2351,-0.245,-0.245,-0.2451,-0.2451,-0.2723,-0.2733,-0.2744,-0.28,0,0,-0.2776,-0.2781,0,0,0,0,0,0,0,0,-0.2076,-0.2091,-0.2231,-0.224,-0.2249,-0.2376,-0.2374,-0.2506,-0.245,-0.2376,-0.2451,-0.2451,-0.2619,-0.2638,-0.267,-0.2813,-0.2825,-0.2777,-0.2784,-0.2788,-0.2791,0,0,0,0,0,0,0,-0.2067,-0.2085,-0.224,-0.2234,-0.2244,-0.2281,-0.2299,-0.24,-0.2495,-0.2382,-0.239,-0.2408,-0.2625,-0.2659,-0.2677,-0.2829,-0.2777,-0.2786,-0.2793,-0.2797,-0.3026,-0.3025,0,0,0,0,0,0,-0.2043,-0.2076,-0.2235,-0.2246,-0.2161,-0.2285,-0.2305,-0.2335,-0.2492,-0.2515,-0.2408,-0.2412,-0.264,-0.2664,-0.2687,-0.2815,-0.2788,-0.2798,-0.2804,-0.3026,-0.3025,-0.3025,0,0,0,0,0,0,-0.2038,-0.2056,-0.2228,-0.2163,-0.2188,-0.2287,-0.2321,-0.2338,-0.2404,-0.251,-0.2536,-0.2458,-0.2642,-0.2672,-0.2844,-0.2824,-0.2803,-0.2813,-0.3026,-0.3026,-0.3025,-0.3038,0,0,0,0,0,0,-0.2031,-0.2053,-0.2079,-0.2162,-0.2191,-0.2328,-0.2321,-0.2341,-0.2412,-0.2421,-0.2562,-0.2586,-0.2645,-0.2828,-0.2854,-0.2839,-0.2821,-0.3027,-0.3026,-0.3025,-0.3038,-0.3038,-0.3038,0,0,0,0,0,-0.2023,-0.2045,-0.208,-0.21,-0.222,-0.2331,-0.2352,-0.2421,-0.2414,-0.2475,-0.2577,-0.2583,-0.2837,-0.2841,-0.2871,-0.2857,-0.3027,-0.3026,-0.3025,-0.3038,-0.3038,-0.3038,0,0,0,0,0,0,-0.197,-0.206,-0.2099,-0.2151,-0.2258,-0.2349,-0.2375,-0.2435,-0.2556,-0.2556,-0.2649,-0.2685,-0.2801,-0.2838,-0.2837,-0.2909,-0.2904,-0.291,-0.2902,-0.2903,-0.2903,-0.2821,-0.283,0,0,0,0,0,-0.1969,-0.2005,-0.2121,-0.2166,-0.2199,-0.2292,-0.2343,-0.241,-0.2515,-0.2566,-0.2663,-0.2737,-0.2812,-0.2874,-0.2951,-0.3045,-0.2978,-0.3027,-0.3027,-0.3027,-0.2975,-0.2861,-0.2844,-0.3023,-0.3023,-0.3023,0,0,-0.1959,-0.2011,-0.2035,-0.2157,-0.221,-0.2295,-0.2324,-0.2408,-0.2503,-0.2579,-0.2716,-0.2767,-0.284,-0.2931,-0.2976,-0.2972,-0.2954,-0.3026,-0.3027,-0.2973,-0.2858,-0.284,-0.2824,-0.3022,-0.3022,-0.3023,0,0,-0.1952,-0.1996,-0.2033,-0.212,-0.2229,-0.2297,-0.233,-0.2453,-0.2527,-0.2704,-0.2718,-0.2773,-0.2951,-0.2951,-0.2984,-0.3029,-0.296,-0.3028,-0.2974,-0.2866,-0.2849,-0.2833,-0.2772,-0.275,-0.3024,-0.3024,-0.3024,0,-0.1943,-0.2002,-0.2069,-0.2136,-0.2184,-0.2297,-0.2362,-0.2474,-0.2655,-0.2666,-0.2761,-0.2843,-0.2947,-0.2934,-0.2961,-0.3026,-0.2953,-0.2982,-0.2862,-0.2844,-0.2828,-0.2769,-0.2744,-0.3025,-0.3025,-0.3025,-0.3025,0,-0.198,-0.2037,-0.2049,-0.2165,-0.2245,-0.231,-0.2458,-0.2535,-0.2631,-0.2708,-0.2757,-0.2877,-0.2886,-0.2924,-0.2999,-0.2887,-0.2874,-0.2879,-0.2856,-0.281,-0.2752,-0.2727,-0.3025,-0.3025,-0.3025,-0.3025,0,0,-0.1925,-0.205,-0.2058,-0.2096,-0.2253,-0.2313,-0.2426,-0.2519,-0.2526,-0.2692,-0.2677,-0.2808,-0.2777,-0.2802,-0.2827,-0.2766,-0.2667,-0.2774,-0.2769,-0.2704,-0.2427,-0.2359,-0.2325,-0.2629,-0.2623,-0.2619,-0.2451,0,-0.1931,-0.202,-0.2092,-0.2179,-0.2225,-0.2317,-0.2404,-0.25,-0.2592,-0.2623,-0.2657,-0.2695,-0.2762,-0.2753,-0.2693,-0.2683,-0.2589,-0.2712,-0.2488,-0.2481,-0.2415,-0.2288,-0.2177,-0.2009,-0.2426,-0.2422,-0.2419,0,-0.1946,-0.1995,-0.2066,-0.2138,-0.2157,-0.2232,-0.2267,-0.2372,-0.2421,-0.2478,-0.2447,-0.2498,-0.2455,-0.2532,-0.2397,-0.2461,-0.2417,-0.2403,-0.2396,-0.2288,-0.236,-0.2113,-0.1946,-0.2375,-0.2379,-0.2382,-0.2385,0,-0.1858,-0.1964,-0.1995,-0.2039,-0.216,-0.2165,-0.222,-0.2287,-0.2333,-0.2346,-0.2358,-0.2297,-0.2314,-0.2209,-0.2248,-0.2291,-0.2089,-0.2151,-0.2019,-0.2018,-0.1851,-0.1842,-0.1962,-0.1963,-0.1963,-0.1963,-0.1964,0,-0.1829,-0.1852,-0.1949,-0.1974,-0.1982,-0.2086,-0.2085,-0.213,-0.2171,-0.2188,-0.2246,-0.2245,-0.2229,-0.2169,-0.2143,-0.1999,-0.1989,-0.1941,-0.1927,-0.1862,-0.1856,-0.2117,-0.2138,-0.1957,-0.1959,-0.196,-0.1961,0,-0.1753,-0.182,-0.1855,-0.1936,-0.1953,-0.196,-0.2031,-0.2026,-0.2084,-0.2101,-0.2108,-0.2175,-0.2094,-0.2047,-0.1923,-0.1883,-0.1755,-0.1694,-0.1649,-0.163,-0.1786,-0.1809,-0.1498,-0.1494,-0.149,-0.1486,-0.1483,0,-0.1726,-0.174,-0.1807,-0.1814,-0.185,-0.1876,-0.189,-0.1966,-0.1977,-0.2073,-0.2066,-0.2036,-0.1997,-0.1792,-0.1669,-0.1488,-0.16,-0.1312,-0.1361,-0.1698,-0.1717,-0.1748,-0.1776,-0.118,-0.1174,-0.117,-0.1167,0,-0.1659,-0.1681,-0.1702,-0.1723,-0.1737,-0.1763,-0.1795,-0.1801,-0.1898,-0.1909,-0.192,-0.1897,-0.1742,-0.1545,-0.1351,-0.1242,-0.1334,-0.122,-0.1498,-0.1329,-0.1386,-0.1411,-0.145,-0.113,-0.1133,-0.1136,-0.1138,-0.114,-0.1588,-0.1582,-0.1607,-0.1613,-0.1637,-0.166,-0.1621,-0.1659,-0.1665,-0.1645,-0.1705,-0.1589,-0.1599,-0.1216,-0.108,-0.0924,-0.103,-0.0996,-0.1012,-0.1033,-0.1039,-0.1086,-0.0778,-0.078,-0.0781,-0.0783,-0.0784,0,-0.15,-0.1499,-0.1497,-0.1513,-0.1506,-0.1554,-0.155,-0.1492,-0.1437,-0.1404,-0.1316,-0.1176,-0.1039,-0.0993,-0.0714,-0.0646,-0.0652,-0.0594,-0.0664,-0.07,-0.0732,-0.0729,-0.0382,-0.0381,-0.038,-0.0379,0,0,-0.1453,-0.1414,-0.1412,-0.1373,-0.1386,-0.1311,-0.1275,-0.1221,-0.1143,-0.1,-0.0894,-0.0908,-0.0979,-0.0737,-0.0652,-0.0481,-0.0569,-0.0401,-0.0722,-0.0841,-0.0872,-0.0955,-0.0987,0,0,0,0,0]},{"header":{"parameterUnit":"m.s-1","parameterCategory":2,"la1":30.2991,"la2":30.254,"lo1":-89.0895,"lo2":-89.0444,"dy":0.0017,"dx":0.0017,"nx":28,"ny":28,"refTime":"2024-07-30T09:00:00:Z","depth":"2","parameterNumber":3,"parameterNumberName":"V-component_of_CURRENTS"},"data":[0,0,0,0,0,0,0,0,0,0,0,0,0,0,0,0,0,0,0,0,0,0,0,0,0,0,0,0,0,0,0,0,0,0,0,0,0,0,0,0,0,0,0,0,0,0,0,0,0,0,0,0,0,0,0,0,0,0,-0.0253,-0.0252,0,-0.0129,-0.0128,-0.0126,-0.0026,-0.0025,-0.0025,-0.0024,0.033,0.0339,0.0348,0,0,0,0,0,0,0,0,0,0,0,0,0,-0.0316,-0.0316,-0.0253,-0.0252,-0.0251,-0.013,-0.0128,-0.0126,-0.0026,-0.0025,-0.0025,-0.0024,0.0328,0.0338,0.0348,0,0,0,0,0,0,0,0,0,0,0,0,0,-0.0248,-0.0316,-0.0253,-0.0189,-0.0182,-0.013,-0.0128,-0.0125,-0.0026,-0.0025,-0.0024,-0.0023,0.0324,0.0337,0.035,0.0409,0,0,0.039,0.0396,0,0,0,0,0,0,0,0,-0.0252,-0.0245,-0.02,-0.0193,-0.0186,-0.0095,-0.002,0.0064,-0.0027,-0.0082,-0.0024,-0.0023,0.0207,0.0229,0.0252,0.0426,0.0441,0.0391,0.0399,0.0405,0.0409,0,0,0,0,0,0,0,-0.0257,-0.0249,-0.0201,-0.0199,-0.019,-0.0137,-0.0126,-0.0004,0.0062,-0.0077,-0.007,-0.0062,0.0213,0.0238,0.0261,0.0446,0.0391,0.0402,0.0411,0.0416,0.0792,0.0794,0,0,0,0,0,0,-0.0284,-0.0254,-0.0205,-0.0197,-0.022,-0.0137,-0.0125,-0.0122,0.0056,0.0081,-0.0063,-0.0058,0.0216,0.0246,0.0275,0.0412,0.0405,0.0417,0.0425,0.079,0.0793,0.0795,0,0,0,0,0,0,-0.0286,-0.0281,-0.021,-0.0225,-0.0213,-0.0138,-0.0135,-0.0121,-0.0084,0.0063,0.0094,-0.0041,0.0218,0.0256,0.0433,0.0425,0.0423,0.0435,0.0787,0.0791,0.0794,0.0653,0,0,0,0,0,0,-0.0289,-0.0283,-0.0287,-0.0228,-0.0213,-0.0172,-0.0136,-0.0119,-0.0083,-0.0074,0.0093,0.0125,0.0221,0.0413,0.0446,0.0443,0.0445,0.0785,0.0789,0.0793,0.0655,0.0651,0.0647,0,0,0,0,0,-0.0292,-0.03,-0.0288,-0.0282,-0.0222,-0.0172,-0.0159,-0.01,-0.0083,-0.0063,0.0078,0.0121,0.046,0.0427,0.0465,0.0465,0.0783,0.0788,0.0792,0.0656,0.0651,0.0647,0,0,0,0,0,0,-0.0321,-0.0289,-0.0275,-0.0271,-0.0225,-0.0156,-0.0142,-0.0104,0.0013,0.003,0.0171,0.0216,0.0361,0.0449,0.0408,0.059,0.0619,0.0632,0.0503,0.0499,0.0496,0.0432,0.0456,0,0,0,0,0,-0.0336,-0.0337,-0.0289,-0.0283,-0.0271,-0.021,-0.0183,-0.0144,-0.0042,0.0006,0.0125,0.0266,0.0406,0.0482,0.0616,0.0725,0.0745,0.0748,0.0743,0.0739,0.0718,0.0707,0.0697,0.081,0.081,0.081,0,0,-0.0345,-0.033,-0.0327,-0.029,-0.0258,-0.0235,-0.0189,-0.0157,-0.0107,0.0033,0.0148,0.0266,0.0439,0.0564,0.0632,0.0637,0.0732,0.0745,0.074,0.0721,0.071,0.0698,0.0687,0.0814,0.0813,0.0813,0,0,-0.0369,-0.0355,-0.0366,-0.0339,-0.03,-0.0255,-0.0249,-0.0178,-0.0114,0.0026,0.0122,0.0234,0.0465,0.0545,0.0631,0.0691,0.0718,0.0734,0.0655,0.0644,0.0632,0.0621,0.0666,0.0661,0.0722,0.0721,0.0721,0,-0.0382,-0.0389,-0.0356,-0.036,-0.0344,-0.027,-0.0269,-0.0188,-0.0057,-0.0022,0.0063,0.0301,0.0453,0.0546,0.0588,0.0673,0.0685,0.0646,0.0628,0.0618,0.0609,0.0658,0.0653,0.0715,0.0716,0.0716,0.0717,0,-0.0413,-0.0416,-0.0421,-0.0403,-0.0377,-0.0361,-0.0272,-0.0223,-0.0129,-0.0061,0.0063,0.0251,0.0369,0.0438,0.0564,0.0565,0.0602,0.0619,0.061,0.0587,0.0644,0.0641,0.0706,0.0708,0.071,0.0712,0,0,-0.0445,-0.0445,-0.0445,-0.0454,-0.0404,-0.0387,-0.0322,-0.0259,-0.0236,-0.0094,-0.0055,0.0172,0.0204,0.0303,0.0409,0.0427,0.043,0.0496,0.0499,0.0491,0.0428,0.0484,0.0488,0.0413,0.0411,0.0409,0.0501,0,-0.0476,-0.0505,-0.0488,-0.0494,-0.0502,-0.0445,-0.0397,-0.0336,-0.023,-0.0163,-0.0036,0.0075,0.0174,0.0233,0.0253,0.0417,0.0411,0.0405,0.0497,0.0501,0.0508,0.0482,0.0472,0.0553,0.0499,0.0499,0.0499,0,-0.051,-0.0527,-0.0554,-0.0562,-0.0563,-0.055,-0.0514,-0.0455,-0.0364,-0.0288,-0.0234,-0.0115,-0.0017,0.0065,0.0202,0.0188,0.0282,0.0379,0.0384,0.0473,0.055,0.0569,0.0551,0.0495,0.0495,0.0496,0.0496,0,-0.0554,-0.0571,-0.0598,-0.0598,-0.0589,-0.0595,-0.0575,-0.0512,-0.0472,-0.0385,-0.0351,-0.0256,-0.0148,-0.0069,0.0183,0.0175,0.0334,0.0345,0.0456,0.0464,0.0495,0.0507,0.0356,0.0356,0.0356,0.0355,0.0355,0,-0.0592,-0.0614,-0.0626,-0.0642,-0.0678,-0.0653,-0.0662,-0.0631,-0.058,-0.0558,-0.0438,-0.0378,-0.0182,-0.0037,0.0121,0.0313,0.0271,0.0431,0.0471,0.0457,0.0465,0.0444,0.0453,0.0359,0.0358,0.0357,0.0357,0,-0.0632,-0.0637,-0.0675,-0.0692,-0.07,-0.0723,-0.0724,-0.0726,-0.0678,-0.0643,-0.062,-0.0451,-0.0238,-0.0033,0.0184,0.0268,0.0432,0.0488,0.0501,0.0538,0.058,0.0581,0.0592,0.0594,0.0596,0.0598,0.0599,0,-0.0657,-0.0681,-0.0719,-0.0746,-0.0756,-0.0781,-0.0801,-0.0775,-0.0768,-0.0678,-0.0661,-0.0451,-0.0267,0.0084,0.0312,0.0556,0.053,0.0608,0.0573,0.0556,0.0594,0.0593,0.0592,0.0587,0.0588,0.0589,0.059,0,-0.0705,-0.0715,-0.0746,-0.0805,-0.0838,-0.0873,-0.0892,-0.0903,-0.0861,-0.0801,-0.0678,-0.0522,-0.0154,0.0163,0.0475,0.0591,0.0572,0.0632,0.0588,0.0527,0.0557,0.0593,0.0591,0.0598,0.0597,0.0597,0.0596,0.0596,-0.0737,-0.0771,-0.0812,-0.0862,-0.0909,-0.0957,-0.0958,-0.0949,-0.0915,-0.0782,-0.067,-0.0368,-0.012,0.0418,0.0567,0.0707,0.0711,0.0692,0.0686,0.068,0.066,0.0692,0.0758,0.0758,0.0758,0.0758,0.0758,0,-0.0779,-0.0814,-0.0868,-0.0934,-0.0997,-0.0994,-0.101,-0.0977,-0.0901,-0.0698,-0.0515,-0.0199,0.0158,0.0429,0.0677,0.0767,0.073,0.0743,0.0675,0.0668,0.0661,0.0637,0.073,0.073,0.073,0.073,0,0,-0.0805,-0.086,-0.0884,-0.0993,-0.1034,-0.1051,-0.1038,-0.0971,-0.0809,-0.058,-0.0309,0.0003,0.0292,0.0437,0.0558,0.0666,0.0625,0.0656,0.0674,0.0572,0.0563,0.0637,0.0594,0,0,0,0,0]}],[{"header":{"parameterUnit":"m.s-1","parameterCategory":2,"la1":30.2991,"la2":30.254,"lo1":-89.0895,"lo2":-89.0444,"dy":0.0017,"dx":0.0017,"nx":28,"ny":28,"refTime":"2024-07-30T09:00:00:Z","depth":"4","parameterNumber":2,"parameterNumberName":"U-component_of_CURRENTS"},"data":[0,0,0,0,0,0,0,0,0,0,0,0,0,0,0,0,0,0,0,0,0,0,0,0,0,0,0,0,0,0,0,0,0,0,0,0,0,0,0,0,0,0,0,0,0,0,0,0,0,0,0,0,0,0,0,0,0,0,-0.14,-0.1401,0,-0.1452,-0.1452,-0.1453,-0.1469,-0.1468,-0.1468,-0.1468,-0.1516,-0.1517,-0.1518,0,0,0,0,0,0,0,0,0,0,0,0,0,-0.1328,-0.1329,-0.14,-0.1401,-0.1402,-0.1452,-0.1452,-0.1453,-0.1469,-0.1468,-0.1468,-0.1468,-0.1515,-0.1517,-0.1518,0,0,0,0,0,0,0,0,0,0,0,0,0,-0.1366,-0.1329,-0.14,-0.1416,-0.1419,-0.1452,-0.1452,-0.1453,-0.1469,-0.1468,-0.1468,-0.1468,-0.1515,-0.1517,-0.1519,-0.1535,0,0,-0.1525,-0.1526,0,0,0,0,0,0,0,0,-0.1364,-0.1368,-0.1413,-0.1415,-0.1418,-0.1455,-0.1444,-0.1481,-0.1469,-0.1448,-0.1468,-0.1468,-0.1496,-0.15,-0.1508,-0.1537,-0.1539,-0.1525,-0.1526,-0.1527,-0.1528,0,0,0,0,0,0,0,-0.1361,-0.1366,-0.1419,-0.1414,-0.1417,-0.1426,-0.1431,-0.1451,-0.1471,-0.145,-0.1451,-0.146,-0.1497,-0.1506,-0.1509,-0.154,-0.1525,-0.1527,-0.1528,-0.1529,-0.1634,-0.1636,0,0,0,0,0,0,-0.1357,-0.1364,-0.1417,-0.1421,-0.1391,-0.1427,-0.1433,-0.1442,-0.1471,-0.1476,-0.146,-0.146,-0.1502,-0.1506,-0.1511,-0.1557,-0.1527,-0.1529,-0.153,-0.1633,-0.1635,-0.1636,0,0,0,0,0,0,-0.1355,-0.1361,-0.1415,-0.1394,-0.1402,-0.1429,-0.1439,-0.1443,-0.1472,-0.1479,-0.1483,-0.1486,-0.1502,-0.1508,-0.1545,-0.1557,-0.153,-0.1532,-0.1631,-0.1633,-0.1636,-0.1633,0,0,0,0,0,0,-0.1353,-0.1361,-0.1379,-0.1394,-0.1403,-0.1449,-0.1439,-0.1444,-0.1476,-0.1478,-0.1503,-0.1506,-0.1502,-0.1542,-0.1547,-0.156,-0.1534,-0.1629,-0.1632,-0.1635,-0.1631,-0.1634,-0.1638,0,0,0,0,0,-0.135,-0.1371,-0.1379,-0.1387,-0.1423,-0.1451,-0.1457,-0.1473,-0.1478,-0.1497,-0.1513,-0.1506,-0.1564,-0.1545,-0.1551,-0.1564,-0.1628,-0.1631,-0.1635,-0.1629,-0.1634,-0.1638,0,0,0,0,0,0,-0.135,-0.1375,-0.1384,-0.1412,-0.1438,-0.1454,-0.1477,-0.1489,-0.1517,-0.1521,-0.1525,-0.153,-0.1563,-0.1576,-0.1555,-0.1607,-0.1596,-0.1601,-0.159,-0.1594,-0.1598,-0.1606,-0.1535,0,0,0,0,0,-0.1359,-0.1382,-0.1404,-0.1431,-0.1444,-0.1466,-0.1484,-0.1496,-0.1517,-0.153,-0.1551,-0.1571,-0.158,-0.1597,-0.1613,-0.1648,-0.164,-0.1663,-0.1667,-0.1669,-0.1683,-0.1699,-0.1704,-0.1648,-0.1648,-0.1648,0,0,-0.1369,-0.1385,-0.1401,-0.1433,-0.1453,-0.1476,-0.1477,-0.1509,-0.1528,-0.1531,-0.1575,-0.1585,-0.1593,-0.1621,-0.1638,-0.1634,-0.1674,-0.1674,-0.1676,-0.1688,-0.1703,-0.1708,-0.1712,-0.165,-0.165,-0.165,0,0,-0.1389,-0.1413,-0.1435,-0.1457,-0.149,-0.1501,-0.1516,-0.1549,-0.1565,-0.1608,-0.1601,-0.1624,-0.1666,-0.1661,-0.1663,-0.1704,-0.1688,-0.1717,-0.1744,-0.1758,-0.1763,-0.1766,-0.172,-0.172,-0.1723,-0.1723,-0.1723,0,-0.14,-0.1424,-0.1448,-0.1471,-0.1489,-0.1514,-0.1537,-0.1557,-0.1601,-0.1619,-0.1629,-0.1682,-0.1681,-0.1695,-0.1703,-0.1709,-0.1703,-0.1718,-0.176,-0.1764,-0.1768,-0.172,-0.172,-0.1723,-0.1723,-0.1723,-0.1723,0,-0.1424,-0.1453,-0.1468,-0.1501,-0.1528,-0.1552,-0.1578,-0.1613,-0.1641,-0.1663,-0.1707,-0.1715,-0.1749,-0.1746,-0.1735,-0.1762,-0.174,-0.1754,-0.1741,-0.1773,-0.172,-0.172,-0.1724,-0.1724,-0.1723,-0.1723,0,0,-0.1413,-0.1472,-0.1478,-0.1501,-0.1542,-0.1566,-0.1601,-0.1637,-0.1672,-0.1716,-0.176,-0.1769,-0.1791,-0.1797,-0.1788,-0.1798,-0.1789,-0.1795,-0.1795,-0.1732,-0.1785,-0.1651,-0.1637,-0.1819,-0.182,-0.1821,-0.172,0,-0.1419,-0.1464,-0.1491,-0.1538,-0.1559,-0.1595,-0.1629,-0.1671,-0.1711,-0.1766,-0.1777,-0.1817,-0.1804,-0.1822,-0.1833,-0.1806,-0.1798,-0.1813,-0.1779,-0.1777,-0.1642,-0.1636,-0.1825,-0.172,-0.1719,-0.1719,-0.1719,0,-0.1417,-0.1448,-0.1493,-0.1554,-0.1569,-0.1606,-0.1668,-0.1704,-0.1769,-0.1805,-0.1852,-0.1874,-0.1881,-0.1882,-0.1854,-0.1869,-0.1834,-0.1809,-0.1805,-0.1688,-0.1644,-0.1695,-0.1718,-0.1718,-0.1719,-0.1719,-0.1719,0,-0.1379,-0.1445,-0.1481,-0.1502,-0.1576,-0.1609,-0.1651,-0.172,-0.1747,-0.1833,-0.1864,-0.1904,-0.191,-0.1903,-0.1845,-0.1862,-0.1806,-0.1817,-0.1655,-0.1642,-0.1794,-0.1792,-0.1808,-0.1809,-0.1809,-0.1809,-0.1809,0,-0.1349,-0.1383,-0.1474,-0.1491,-0.1542,-0.1605,-0.166,-0.1714,-0.1781,-0.1802,-0.1883,-0.1891,-0.1925,-0.1896,-0.1856,-0.173,-0.1808,-0.1648,-0.1616,-0.1789,-0.1788,-0.179,-0.1789,-0.1805,-0.1806,-0.1807,-0.1807,0,-0.1292,-0.1352,-0.14,-0.1491,-0.1522,-0.1561,-0.164,-0.1668,-0.1752,-0.1779,-0.1802,-0.187,-0.1833,-0.1822,-0.1785,-0.1704,-0.1625,-0.1565,-0.1704,-0.1684,-0.1444,-0.1445,-0.1367,-0.1362,-0.1357,-0.1353,-0.135,0,-0.1261,-0.1283,-0.1386,-0.141,-0.1451,-0.1515,-0.1542,-0.1636,-0.1651,-0.1734,-0.1723,-0.1744,-0.1762,-0.158,-0.1612,-0.1507,-0.1494,-0.1422,-0.1476,-0.1425,-0.1403,-0.1411,-0.1418,-0.1343,-0.1342,-0.1341,-0.1339,0,-0.1194,-0.1247,-0.1283,-0.1335,-0.1374,-0.1409,-0.1455,-0.145,-0.1534,-0.1624,-0.1581,-0.1555,-0.1513,-0.1483,-0.1408,-0.1347,-0.1458,-0.1375,-0.1385,-0.1435,-0.1395,-0.138,-0.1391,-0.1324,-0.1326,-0.1327,-0.1328,0,-0.1141,-0.1152,-0.1206,-0.1236,-0.1281,-0.1273,-0.1319,-0.1314,-0.1339,-0.1424,-0.1403,-0.1433,-0.1493,-0.1397,-0.1332,-0.1257,-0.1241,-0.1181,-0.1201,-0.1219,-0.122,-0.1152,-0.0966,0,0,0,0,0,-0.1079,-0.1075,-0.1097,-0.1116,-0.1153,-0.1175,-0.1239,-0.1283,-0.1359,-0.1275,-0.133,-0.1286,-0.1214,-0.1246,-0.1133,-0.1267,-0.1249,-0.113,-0.1193,-0.1236,-0.1254,-0.1272,0,0,0,0,0,0,-0.1035,-0.1056,-0.1058,-0.1,-0.0985,-0.1007,-0.104,-0.1099,-0.1062,-0.1149,-0.1123,-0.1179,-0.1142,-0.1246,-0.11,-0.11,-0.1101,-0.1151,-0.1145,-0.1226,-0.1242,-0.1257,-0.1281,0,0,0,0,0]},{"header":{"parameterUnit":"m.s-1","parameterCategory":2,"la1":30.2991,"la2":30.254,"lo1":-89.0895,"lo2":-89.0444,"dy":0.0017,"dx":0.0017,"nx":28,"ny":28,"refTime":"2024-07-30T09:00:00:Z","depth":"4","parameterNumber":3,"parameterNumberName":"V-component_of_CURRENTS"},"data":[0,0,0,0,0,0,0,0,0,0,0,0,0,0,0,0,0,0,0,0,0,0,0,0,0,0,0,0,0,0,0,0,0,0,0,0,0,0,0,0,0,0,0,0,0,0,0,0,0,0,0,0,0,0,0,0,0,0,-0.0214,-0.0214,0,-0.0183,-0.0183,-0.0182,-0.0157,-0.0157,-0.0157,-0.0157,-0.01,-0.0099,-0.0098,0,0,0,0,0,0,0,0,0,0,0,0,0,-0.0234,-0.0234,-0.0214,-0.0214,-0.0214,-0.0183,-0.0183,-0.0182,-0.0157,-0.0157,-0.0157,-0.0157,-0.0101,-0.0099,-0.0098,0,0,0,0,0,0,0,0,0,0,0,0,0,-0.0216,-0.0234,-0.0214,-0.0198,-0.0196,-0.0183,-0.0183,-0.0182,-0.0158,-0.0157,-0.0157,-0.0156,-0.0101,-0.0099,-0.0097,-0.0093,0,0,-0.0091,-0.0091,0,0,0,0,0,0,0,0,-0.0217,-0.0216,-0.02,-0.0199,-0.0197,-0.0174,-0.0169,-0.0151,-0.0158,-0.0172,-0.0157,-0.0156,-0.0123,-0.0119,-0.0114,-0.009,-0.0088,-0.0091,-0.009,-0.0089,-0.0089,0,0,0,0,0,0,0,-0.0219,-0.0217,-0.0202,-0.02,-0.0198,-0.0185,-0.0182,-0.0165,-0.0149,-0.0171,-0.0169,-0.0166,-0.0121,-0.0116,-0.0113,-0.0087,-0.0091,-0.009,-0.0088,-0.0088,-0.0069,-0.007,0,0,0,0,0,0,-0.0224,-0.0218,-0.0203,-0.0201,-0.0206,-0.0185,-0.0182,-0.0181,-0.015,-0.0145,-0.0166,-0.0164,-0.012,-0.0115,-0.0111,-0.0126,-0.0089,-0.0088,-0.0086,-0.0069,-0.007,-0.007,0,0,0,0,0,0,-0.0225,-0.0223,-0.0204,-0.0209,-0.0205,-0.0185,-0.0185,-0.0181,-0.0177,-0.0147,-0.0141,-0.0166,-0.0119,-0.0113,-0.0108,-0.0123,-0.0087,-0.0085,-0.0068,-0.0069,-0.007,-0.0142,0,0,0,0,0,0,-0.0225,-0.0224,-0.0228,-0.0209,-0.0205,-0.0204,-0.0185,-0.0181,-0.0176,-0.0173,-0.0145,-0.0139,-0.0118,-0.0112,-0.0106,-0.0119,-0.0083,-0.0067,-0.0068,-0.007,-0.0139,-0.0146,-0.0151,0,0,0,0,0,-0.0226,-0.0236,-0.0229,-0.0227,-0.0211,-0.0205,-0.0202,-0.0186,-0.0176,-0.018,-0.0165,-0.014,-0.0115,-0.0111,-0.0105,-0.0117,-0.0067,-0.0068,-0.0069,-0.0136,-0.0144,-0.0151,0,0,0,0,0,0,-0.0246,-0.0233,-0.0225,-0.023,-0.0221,-0.0201,-0.0203,-0.0191,-0.0182,-0.0181,-0.015,-0.0144,-0.0145,-0.0121,-0.0117,-0.0115,-0.0086,-0.0086,-0.0139,-0.0146,-0.0152,-0.0137,-0.0082,0,0,0,0,0,-0.0253,-0.0256,-0.0241,-0.0245,-0.0243,-0.0224,-0.0219,-0.0209,-0.0197,-0.0193,-0.0173,-0.0154,-0.0146,-0.0139,-0.0124,-0.0124,-0.0063,-0.0126,-0.0133,-0.0138,-0.0122,-0.0035,-0.0031,-0.0075,-0.0075,-0.0075,0,0,-0.026,-0.0255,-0.0256,-0.0249,-0.0241,-0.0245,-0.0221,-0.022,-0.0224,-0.0188,-0.019,-0.0174,-0.0151,-0.0155,-0.0152,-0.0137,-0.0101,-0.014,-0.0145,-0.0125,-0.0035,-0.0031,-0.0027,-0.0076,-0.0076,-0.0076,0,0,-0.0282,-0.0274,-0.0286,-0.0284,-0.0276,-0.0264,-0.0266,-0.0251,-0.0245,-0.0246,-0.0225,-0.0215,-0.0201,-0.0185,-0.0177,-0.0204,-0.0136,-0.0206,-0.0225,-0.0142,-0.0136,-0.0131,-0.0075,-0.0064,-0.0209,-0.0209,-0.0209,0,-0.0292,-0.0303,-0.0289,-0.0302,-0.0303,-0.0276,-0.029,-0.0282,-0.0267,-0.0262,-0.0255,-0.0222,-0.0211,-0.0202,-0.0222,-0.0216,-0.0162,-0.0203,-0.0147,-0.0141,-0.0134,-0.0077,-0.0064,-0.0213,-0.0213,-0.0212,-0.0212,0,-0.0323,-0.0332,-0.034,-0.0346,-0.0348,-0.0354,-0.0342,-0.0339,-0.0327,-0.0311,-0.0296,-0.0273,-0.0246,-0.0254,-0.0252,-0.0213,-0.019,-0.0165,-0.0127,-0.0133,-0.0074,-0.0059,-0.0218,-0.0217,-0.0216,-0.0215,0,0,-0.0344,-0.0359,-0.0362,-0.0376,-0.0372,-0.0378,-0.0384,-0.0377,-0.0372,-0.035,-0.0328,-0.0328,-0.0295,-0.0282,-0.0267,-0.021,-0.0143,-0.0177,-0.0171,-0.0118,0.0032,0.0003,0.0017,-0.0102,-0.0099,-0.0097,0.0045,0,-0.0372,-0.0408,-0.0405,-0.0435,-0.0452,-0.0434,-0.0444,-0.0434,-0.041,-0.0379,-0.0337,-0.0314,-0.0312,-0.0299,-0.0241,-0.0158,-0.0102,-0.0184,0.003,0.0036,0.0014,0.0034,-0.0088,0.0057,0.0061,0.0063,0.0065,0,-0.0403,-0.0423,-0.0461,-0.0484,-0.049,-0.0504,-0.0501,-0.0503,-0.0454,-0.0434,-0.0382,-0.0333,-0.0265,-0.025,-0.0091,-0.014,-0.0061,0.0005,0.0013,0.003,0.0035,0.0073,0.0094,0.0091,0.0089,0.0087,0.0086,0,-0.043,-0.0462,-0.0495,-0.0504,-0.0523,-0.0539,-0.0543,-0.052,-0.052,-0.0449,-0.0428,-0.0324,-0.0269,-0.0138,-0.0021,-0.004,0.0174,0.0171,0.022,0.0218,0.0235,0.0228,0.0301,0.0301,0.0301,0.03,0.03,0,-0.0457,-0.0485,-0.0513,-0.0534,-0.0576,-0.0574,-0.0595,-0.0585,-0.055,-0.0538,-0.0454,-0.0409,-0.0233,-0.0102,0.001,0.0163,0.0207,0.0233,0.0264,0.0195,0.0182,0.0245,0.0236,0.0306,0.0305,0.0303,0.0303,0,-0.0481,-0.0497,-0.0542,-0.0576,-0.0592,-0.0621,-0.0646,-0.065,-0.0619,-0.0589,-0.0566,-0.0445,-0.0272,-0.0101,0.0124,0.0186,0.0345,0.0384,0.0292,0.0313,0.0323,0.0309,0.0463,0.0464,0.0464,0.0464,0.0465,0,-0.0495,-0.0521,-0.0579,-0.0612,-0.0632,-0.067,-0.0695,-0.0687,-0.0683,-0.0616,-0.0597,-0.0436,-0.0338,-0.0031,0.0134,0.0375,0.0384,0.0453,0.0389,0.033,0.0346,0.0331,0.0317,0.0465,0.0465,0.0465,0.0465,0,-0.0524,-0.0547,-0.0584,-0.0651,-0.0694,-0.0734,-0.0761,-0.0761,-0.0733,-0.071,-0.0596,-0.0447,-0.0253,-0.0029,0.0162,0.032,0.0407,0.0456,0.0456,0.0396,0.0334,0.0346,0.0332,0.0466,0.0466,0.0466,0.0466,0,-0.0545,-0.0579,-0.063,-0.0683,-0.0742,-0.0777,-0.0787,-0.0764,-0.0751,-0.0669,-0.0627,-0.0427,-0.0298,-0.0058,0.0115,0.0279,0.0297,0.0312,0.032,0.032,0.0221,0.0117,0.0227,0,0,0,0,0,-0.0564,-0.0601,-0.0658,-0.072,-0.0776,-0.0803,-0.0824,-0.0817,-0.0784,-0.0707,-0.0663,-0.0481,-0.022,-0.0104,0.006,0.0098,0.0309,0.0286,0.0327,0.0473,0.0471,0.0374,0,0,0,0,0,0,-0.058,-0.0636,-0.0659,-0.0733,-0.0775,-0.0832,-0.0841,-0.0819,-0.076,-0.0704,-0.0546,-0.0477,-0.0203,-0.0301,0.0056,0.0102,0.0138,0.0416,0.0417,0.0473,0.0472,0.0471,0.0371,0,0,0,0,0]}]]